Location: Ladrillo (historical)
(32.8195°N, 117.2231°W)
Time: 11:36:50
(UTC+00:00)

Vanguard 3 - Pass Details

Date: 06 March 2021
Orbit: 508 x 3262 km, 33.3° (Epoch: 19 April)

Event Time Altitude Azimuth Distance (km) Brightness Sun altitude
Rises 05:45:37 0° 280° (W) 5,379 11.9 -48.5°
Reaches altitude 10° 05:51:32 10° 261° (W) 3,724 10.8 -49.5°
Enters shadow 05:53:58 14° 248° (WSW) 3,164 10.3 -49.9°
Maximum altitude 05:56:12 15° 231° (SW) 2,803 - -50.3°
Drops below altitude 10° 05:59:52 10° 197° (SSW) 2,747 - -50.9°
Sets 06:03:12 0° 173° (S) 3,311 - -51.5°
